EN

Hourly Weather Ameca

Today, 28 January, Thursday

Time Temperature Precipitation Wind Pressure Humidity
00:00 +15°C° 0 mm 0 mps 656 mmHg 71%
01:00 +15°C° 0 mm 0 mps 656 mmHg 72%
02:00 +14°C° 0 mm 0 mps 656 mmHg 72%
03:00 +14°C° 0 mm 0 mps 656 mmHg 72%
04:00 +15°C° 0 mm 1 mps 657 mmHg 72%
05:00 +15°C° 0 mm 1 mps 657 mmHg 71%
06:00 +16°C° 0 mm 1 mps 658 mmHg 68%
07:00 +18°C° 0 mm 1 mps 659 mmHg 65%
08:00 +19°C° 0 mm 1 mps 659 mmHg 62%
09:00 +21°C° 0 mm 2 mps 660 mmHg 53%
10:00 +25°C° 0 mm 2 mps 660 mmHg 45%
11:00 +28°C° 0 mm 2 mps 661 mmHg 37%
12:00 +29°C° 0 mm 2 mps 660 mmHg 34%
13:00 +31°C° 0 mm 2 mps 660 mmHg 30%
14:00 +32°C° 0 mm 1 mps 660 mmHg 27%
15:00 +31°C° 0 mm 1 mps 659 mmHg 28%
16:00 +30°C° 0 mm 1 mps 659 mmHg 29%
17:00 +29°C° 0 mm 1 mps 659 mmHg 30%
18:00 +26°C° 0 mm 1 mps 658 mmHg 39%
19:00 +23°C° 0 mm 1 mps 658 mmHg 48%
20:00 +20°C° 0 mm 1 mps 658 mmHg 57%
21:00 +19°C° 0 mm 1 mps 658 mmHg 62%
22:00 +18°C° 0 mm 1 mps 657 mmHg 68%
23:00 +16°C° 0 mm 1 mps 657 mmHg 74%

Tomorrow, 29 January, Friday

Time Temperature Precipitation Wind Pressure Humidity
00:00 +16°C° 0 mm 1 mps 657 mmHg 75%
01:00 +15°C° 0 mm 0 mps 657 mmHg 76%
02:00 +14°C° 0 mm 0 mps 657 mmHg 77%
03:00 +14°C° 0 mm 0 mps 656 mmHg 78%
04:00 +13°C° 0 mm 0 mps 656 mmHg 79%
05:00 +13°C° 0 mm 0 mps 656 mmHg 80%
06:00 +15°C° 0 mm 0 mps 657 mmHg 73%
07:00 +16°C° 0 mm 0 mps 658 mmHg 66%
08:00 +18°C° 0 mm 0 mps 658 mmHg 58%
09:00 +22°C° 0 mm 0 mps 659 mmHg 49%
10:00 +27°C° 0 mm 1 mps 660 mmHg 39%
11:00 +31°C° 0 mm 1 mps 661 mmHg 30%
12:00 +32°C° 0 mm 1 mps 660 mmHg 28%
13:00 +32°C° 0 mm 1 mps 660 mmHg 26%
14:00 +34°C° 0 mm 2 mps 659 mmHg 24%
15:00 +31°C° 0 mm 2 mps 658 mmHg 25%
16:00 +30°C° 0 mm 3 mps 658 mmHg 27%
17:00 +29°C° 0 mm 3 mps 657 mmHg 29%
18:00 +26°C° 0 mm 3 mps 657 mmHg 36%
19:00 +23°C° 0 mm 2 mps 657 mmHg 43%
20:00 +19°C° 0 mm 2 mps 656 mmHg 50%
21:00 +19°C° 0 mm 1 mps 656 mmHg 53%
22:00 +18°C° 0 mm 1 mps 656 mmHg 56%
23:00 +16°C° 0 mm 1 mps 655 mmHg 60%

Day after tomorrow, 30 January, Saturday

Time Temperature Precipitation Wind Pressure Humidity
00:00 +16°C° 0 mm 1 mps 655 mmHg 60%
01:00 +15°C° 0 mm 1 mps 655 mmHg 61%
02:00 +15°C° 0 mm 1 mps 655 mmHg 62%
03:00 +14°C° 0 mm 0 mps 654 mmHg 62%
04:00 +13°C° 0 mm 0 mps 654 mmHg 63%
05:00 +13°C° 0 mm 0 mps 654 mmHg 63%
06:00 +15°C° 0 mm 0 mps 655 mmHg 58%
07:00 +16°C° 0 mm 0 mps 656 mmHg 53%
08:00 +18°C° 0 mm 0 mps 657 mmHg 49%
09:00 +23°C° 0 mm 1 mps 657 mmHg 41%
10:00 +26°C° 0 mm 1 mps 658 mmHg 33%
11:00 +30°C° 0 mm 2 mps 659 mmHg 25%
12:00 +30°C° 0 mm 2 mps 658 mmHg 23%
13:00 +31°C° 0 mm 3 mps 658 mmHg 20%
14:00 +33°C° 0 mm 3 mps 657 mmHg 18%
15:00 +31°C° 0 mm 3 mps 657 mmHg 20%
16:00 +30°C° 0 mm 3 mps 656 mmHg 22%
17:00 +29°C° 0 mm 3 mps 656 mmHg 25%
18:00 +26°C° 0 mm 2 mps 656 mmHg 31%
19:00 +23°C° 0 mm 2 mps 655 mmHg 38%
20:00 +20°C° 0 mm 1 mps 655 mmHg 45%
21:00 +19°C° 0 mm 1 mps 655 mmHg 48%
22:00 +18°C° 0 mm 1 mps 655 mmHg 51%
23:00 +16°C° 0 mm 1 mps 655 mmHg 54%

31 January, Sunday

Time Temperature Precipitation Wind Pressure Humidity
00:00 +15°C° 0 mm 0 mps 654 mmHg 55%
01:00 +14°C° 0 mm 0 mps 654 mmHg 56%
02:00 +14°C° 0 mm 0 mps 654 mmHg 57%
03:00 +13°C° 0 mm 0 mps 653 mmHg 57%
04:00 +13°C° 0 mm 0 mps 653 mmHg 57%
05:00 +13°C° 0 mm 0 mps 653 mmHg 57%
06:00 +15°C° 0 mm 0 mps 654 mmHg 52%
07:00 +18°C° 0 mm 1 mps 655 mmHg 47%
08:00 +20°C° 0 mm 1 mps 656 mmHg 42%
09:00 +25°C° 0 mm 1 mps 657 mmHg 34%
10:00 +29°C° 0 mm 1 mps 658 mmHg 25%
11:00 +33°C° 0 mm 1 mps 660 mmHg 16%
12:00 +34°C° 0 mm 1 mps 659 mmHg 15%
13:00 +35°C° 0 mm 1 mps 658 mmHg 14%
14:00 +36°C° 0 mm 1 mps 658 mmHg 13%
15:00 +34°C° 0 mm 1 mps 657 mmHg 14%
16:00 +33°C° 0 mm 1 mps 657 mmHg 16%
17:00 +31°C° 0 mm 2 mps 656 mmHg 18%
18:00 +27°C° 0 mm 2 mps 656 mmHg 27%
19:00 +24°C° 0 mm 1 mps 656 mmHg 36%
20:00 +21°C° 0 mm 1 mps 655 mmHg 46%
21:00 +20°C° 0 mm 1 mps 656 mmHg 50%
22:00 +19°C° 0 mm 1 mps 656 mmHg 55%
23:00 +18°C° 0 mm 1 mps 656 mmHg 60%

1 February, Monday

Time Temperature Precipitation Wind Pressure Humidity
00:00 +16°C° 0 mm 0 mps 656 mmHg 62%
01:00 +15°C° 0 mm 0 mps 655 mmHg 65%
02:00 +15°C° 0 mm 0 mps 655 mmHg 68%
03:00 +14°C° 0 mm 0 mps 655 mmHg 68%
04:00 +15°C° 0 mm 1 mps 655 mmHg 69%
05:00 +15°C° 0 mm 1 mps 655 mmHg 70%
06:00 +16°C° 0 mm 1 mps 656 mmHg 63%
07:00 +19°C° 0 mm 1 mps 657 mmHg 56%
08:00 +20°C° 0 mm 1 mps 658 mmHg 50%
09:00 +23°C° 0 mm 1 mps 659 mmHg 43%
10:00 +26°C° 0 mm 2 mps 659 mmHg 37%
11:00 +29°C° 0 mm 2 mps 660 mmHg 30%
12:00 +31°C° 0 mm 1 mps 660 mmHg 27%
13:00 +33°C° 0 mm 1 mps 659 mmHg 23%
14:00 +33°C° 0 mm 0 mps 659 mmHg 20%
15:00 +34°C° 0 mm 1 mps 658 mmHg 21%
16:00 +32°C° 0 mm 1 mps 658 mmHg 23%
17:00 +30°C° 0 mm 1 mps 657 mmHg 25%
18:00 +27°C° 0 mm 1 mps 657 mmHg 36%
19:00 +24°C° 0 mm 1 mps 656 mmHg 46%
20:00 +20°C° 0 mm 1 mps 656 mmHg 56%
21:00 +20°C° 0 mm 1 mps 656 mmHg 61%
22:00 +19°C° 0 mm 1 mps 656 mmHg 67%
23:00 +18°C° 0 mm 1 mps 656 mmHg 72%

2 February, Tuesday

Time Temperature Precipitation Wind Pressure Humidity
00:00 +15°C° 0 mm 0 mps 656 mmHg 75%
01:00 +15°C° 0 mm 0 mps 655 mmHg 78%
02:00 +14°C° 0 mm 0 mps 655 mmHg 81%
03:00 +14°C° 0 mm 0 mps 655 mmHg 82%
04:00 +14°C° 0 mm 0 mps 655 mmHg 83%
05:00 +14°C° 0 mm 0 mps 654 mmHg 84%
06:00 +15°C° 0 mm 0 mps 655 mmHg 76%
07:00 +17°C° 0 mm 0 mps 656 mmHg 68%
08:00 +19°C° 0 mm 0 mps 657 mmHg 60%
09:00 +23°C° 0 mm 0 mps 658 mmHg 48%
10:00 +27°C° 0 mm 0 mps 659 mmHg 36%
11:00 +31°C° 0 mm 0 mps 660 mmHg 24%
12:00 +34°C° 0 mm 1 mps 659 mmHg 22%
13:00 +35°C° 0 mm 2 mps 659 mmHg 19%
14:00 +35°C° 0 mm 2 mps 658 mmHg 17%
15:00 +33°C° 0 mm 3 mps 657 mmHg 20%
16:00 +31°C° 0 mm 3 mps 657 mmHg 24%
17:00 +29°C° 0 mm 4 mps 656 mmHg 28%
18:00 +26°C° 0 mm 3 mps 656 mmHg 38%
19:00 +23°C° 0 mm 2 mps 655 mmHg 49%
20:00 +20°C° 0 mm 1 mps 655 mmHg 60%
21:00 +19°C° 0 mm 1 mps 655 mmHg 63%
22:00 +18°C° 0 mm 1 mps 655 mmHg 65%
23:00 +15°C° 0 mm 0 mps 655 mmHg 68%
Show more